Location: Park Creek Village Mobile Home Park
(38.2885°N, 122.4714°W)
Time: 15:29:17
(UTC+00:00)

USA 238 DEB - Pass Details

Date: 14 December 2019
Orbit: 1024 x 1188 km, 63.4° (Epoch: 16 January)

Event Time Altitude Azimuth Distance (km) Brightness Sun altitude
Rises 13:28:26 0° 206° (SSW) 3,756 6.4 -20.9°
Reaches altitude 10° 13:31:00 10° 205° (SSW) 2,813 5.8 -20.4°
Maximum altitude 13:37:37 78° 121° (ESE) 1,068 3.8 -19.2°
Drops below altitude 10° 13:44:27 10° 35° (NE) 2,905 6.2 -17.9°
Sets 13:47:09 0° 35° (NE) 3,886 6.9 -17.4°
